[[{"header":{"parameterUnit":"m.s-1","parameterCategory":1,"la1":30.2991,"la2":30.254,"lo1":-89.0895,"lo2":-89.0444,"dy":0.0017,"dx":0.0017,"nx":28,"ny":28,"refTime":"2025-06-19T03:00:00:Z","depth":0,"parameterNumber":2,"parameterNumberName":"U-component_of_WINDS"},"data":[0,0,0,0,0,0,0,0,0,0,0,0,0,0,0,0,0,0,0,0,0,0,0,0,0,0,0,0,0,0,0,0,0,0,0,0,0,0,0,0,0,0,0,0,0,0,0,0,0,0,0,0,0,0,0,0,0,0,3.3643,3.3644,0,3.3752,3.3753,3.3754,3.3727,3.3725,3.3723,3.3721,3.3831,3.3836,3.3841,0,0,0,0,0,0,0,0,0,0,0,0,0,3.3407,3.3412,3.3643,3.3644,3.3646,3.3752,3.3753,3.3755,3.3727,3.3725,3.3722,3.372,3.383,3.3835,3.3841,0,0,0,0,0,0,0,0,0,0,0,0,0,3.3512,3.3413,3.3643,3.3645,3.3646,3.3752,3.3753,3.3755,3.3728,3.3725,3.3721,3.3718,3.3828,3.3835,3.3842,3.3952,0,0,3.3865,3.3868,0,0,0,0,0,0,0,0,3.3506,3.3521,3.3643,3.3645,3.3646,3.3723,3.3711,3.3821,3.3729,3.3697,3.3721,3.3717,3.3798,3.3807,3.3835,3.3957,3.3962,3.3866,3.387,3.3873,3.3875,0,0,0,0,0,0,0,3.3499,3.3516,3.3686,3.3645,3.3647,3.3639,3.365,3.3732,3.3764,3.3699,3.3698,3.3711,3.3798,3.3828,3.3837,3.3964,3.3865,3.3872,3.3876,3.3879,3.4176,3.4179,0,0,0,0,0,0,3.3491,3.351,3.3683,3.3689,3.3567,3.3646,3.3659,3.3701,3.3763,3.3769,3.3714,3.3709,3.3817,3.3829,3.3841,3.397,3.3873,3.388,3.3884,3.4173,3.4177,3.4181,0,0,0,0,0,0,3.3486,3.3507,3.3678,3.3599,3.3621,3.3653,3.3702,3.3705,3.3735,3.3774,3.3779,3.3738,3.3815,3.3831,3.3923,3.3973,3.3883,3.389,3.4169,3.4174,3.4179,3.423,0,0,0,0,0,0,3.3479,3.3505,3.3548,3.3601,3.3625,3.376,3.3705,3.371,3.3748,3.3743,3.3798,3.3804,3.3813,3.3913,3.3931,3.3982,3.3896,3.4164,3.4171,3.4177,3.4224,3.4236,3.4247,0,0,0,0,0,3.3471,3.3559,3.355,3.3571,3.368,3.3763,3.3777,3.3786,3.3752,3.3794,3.3819,3.3802,3.3965,3.3922,3.3943,3.3997,3.4161,3.4169,3.4177,3.4219,3.4234,3.4247,0,0,0,0,0,0,3.3512,3.3566,3.3557,3.3665,3.371,3.3758,3.3812,3.3802,3.3857,3.3851,3.3859,3.3872,3.3966,3.3991,3.3942,3.4103,3.4058,3.407,3.4083,3.4098,3.4109,3.41,3.3902,0,0,0,0,0,3.3534,3.3598,3.3641,3.3732,3.3755,3.378,3.3817,3.382,3.3866,3.3885,3.3916,3.3961,3.4021,3.4062,3.412,3.4228,3.4238,3.4275,3.4286,3.4296,3.4305,3.436,3.4375,3.4206,3.4206,3.4206,0,0,3.3579,3.3616,3.3656,3.3741,3.3776,3.384,3.3796,3.3867,3.3914,3.3895,3.3984,3.4008,3.4059,3.4159,3.4204,3.4182,3.4354,3.4306,3.4313,3.4317,3.4369,3.4385,3.4399,3.4211,3.421,3.421,0,0,3.3693,3.373,3.3807,3.3842,3.3895,3.3911,3.3929,3.398,3.3994,3.4084,3.407,3.4125,3.4232,3.4267,3.4298,3.4423,3.4408,3.4442,3.45,3.4553,3.4567,3.4578,3.4619,3.4634,3.4452,3.4452,3.4452,0,3.3742,3.3839,3.3848,3.3919,3.3955,3.3941,3.4018,3.4052,3.4121,3.4145,3.4121,3.425,3.4284,3.4389,3.4419,3.4447,3.4465,3.4434,3.4564,3.4576,3.4587,3.4626,3.4641,3.4455,3.4455,3.4455,3.4454,0,3.3895,3.3962,3.4019,3.4084,3.4127,3.4201,3.4219,3.4261,3.426,3.4277,3.4366,3.4405,3.4469,3.4495,3.4496,3.46,3.4584,3.4562,3.4516,3.4606,3.4642,3.4658,3.446,3.4459,3.4458,3.4457,0,0,3.4038,3.4106,3.4126,3.4154,3.421,3.4262,3.4334,3.4396,3.443,3.4478,3.4536,3.4625,3.4603,3.4639,3.4643,3.469,3.4781,3.4661,3.4663,3.4679,3.4893,3.4907,3.4924,3.4772,3.4775,3.4778,3.4887,0,3.4154,3.4281,3.4289,3.4403,3.4462,3.4449,3.4511,3.4551,3.4569,3.4621,3.4641,3.4701,3.4671,3.4692,3.4738,3.476,3.4823,3.4753,3.4823,3.4826,3.4808,3.4943,3.4959,3.5061,3.4902,3.4904,3.4906,0,3.4307,3.4357,3.4477,3.452,3.4546,3.4602,3.4657,3.4709,3.4753,3.4762,3.4801,3.4797,3.4868,3.4822,3.4918,3.4869,3.4899,3.4914,3.4918,3.4923,3.4869,3.4948,3.5094,3.5108,3.4929,3.4927,3.4926,0,3.4393,3.4492,3.4575,3.46,3.4655,3.4693,3.4718,3.4759,3.4794,3.4843,3.4865,3.4923,3.4953,3.4996,3.5006,3.4972,3.5101,3.5056,3.5108,3.5108,3.5134,3.5131,3.5283,3.5159,3.5159,3.5158,3.5158,0,3.452,3.4592,3.4614,3.4665,3.4744,3.4753,3.4831,3.4853,3.4889,3.4942,3.4935,3.4984,3.4997,3.5049,3.5058,3.5133,3.5149,3.5156,3.5157,3.5155,3.5153,3.5172,3.5164,3.5162,3.5162,3.5161,3.516,0,3.463,3.4648,3.4736,3.478,3.4793,3.4849,3.4886,3.4933,3.4949,3.5016,3.5032,3.5058,3.5118,3.5133,3.5206,3.5211,3.5299,3.5296,3.5284,3.5283,3.5332,3.5326,3.5498,3.5519,3.5385,3.5386,3.5387,0,3.4708,3.4762,3.4812,3.4846,3.4872,3.4929,3.4964,3.4975,3.5012,3.5064,3.5104,3.5163,3.5211,3.5307,3.533,3.5385,3.538,3.5436,3.5388,3.5382,3.5376,3.5371,3.5374,3.5445,3.5446,3.5447,3.5448,0,3.4842,3.4848,3.49,3.4954,3.4997,3.504,3.5081,3.511,3.5126,3.5167,3.5228,3.5265,3.5337,3.5394,3.5448,3.5472,3.5461,3.5464,3.5478,3.5474,3.5464,3.5466,3.5305,3.5459,3.5458,3.5457,3.5457,3.5456,3.4936,3.4982,3.5023,3.508,3.5112,3.515,3.5195,3.5217,3.5268,3.5327,3.533,3.5395,3.5434,3.5505,3.5532,3.5581,3.5564,3.5586,3.5591,3.5595,3.5597,3.5458,3.5592,3.5592,3.5591,3.5591,3.5591,0,3.5066,3.5091,3.5144,3.5201,3.5245,3.5233,3.5277,3.5314,3.5371,3.5409,3.5455,3.5523,3.5578,3.5606,3.5659,3.5693,3.569,3.5707,3.5703,3.5707,3.5611,3.5592,3.5708,3.5708,3.5708,3.5708,3.5708,3.5708,3.5139,3.5216,3.5226,3.5317,3.5341,3.5405,3.543,3.5464,3.5494,3.557,3.5615,3.5633,3.5666,3.5721,3.577,3.5777,3.5795,3.5814,3.5817,3.5727,3.5715,3.5703,3.5684,3.5819,3.5819,3.5909,3.5909,3.591]},{"header":{"parameterUnit":"m.s-1","parameterCategory":1,"la1":30.2991,"la2":30.254,"lo1":-89.0895,"lo2":-89.0444,"dy":0.0017,"dx":0.0017,"nx":28,"ny":28,"refTime":"2025-06-19T03:00:00:Z","depth":0,"parameterNumber":3,"parameterNumberName":"V-component_of_WINDS"},"data":[0,0,0,0,0,0,0,0,0,0,0,0,0,0,0,0,0,0,0,0,0,0,0,0,0,0,0,0,0,0,0,0,0,0,0,0,0,0,0,0,0,0,0,0,0,0,0,0,0,0,0,0,0,0,0,0,0,0,2.8949,2.895,0,2.9055,2.9057,2.9058,2.9045,2.9044,2.9042,2.904,2.9148,2.9152,2.9156,0,0,0,0,0,0,0,0,0,0,0,0,0,2.873,2.8734,2.8949,2.895,2.8951,2.9055,2.9057,2.9058,2.9046,2.9043,2.9041,2.9039,2.9146,2.9151,2.9157,0,0,0,0,0,0,0,0,0,0,0,0,0,2.883,2.8736,2.8948,2.8958,2.8959,2.9055,2.9057,2.9059,2.9046,2.9043,2.9041,2.9038,2.9144,2.9151,2.9158,2.925,0,0,2.9178,2.9181,0,0,0,0,0,0,0,0,2.8824,2.8838,2.8955,2.8957,2.8959,2.9034,2.9019,2.9123,2.9047,2.9013,2.904,2.9037,2.9112,2.9121,2.9147,2.9255,2.926,2.9179,2.9183,2.9186,2.9187,0,0,0,0,0,0,0,2.8817,2.8833,2.8991,2.8957,2.8959,2.8955,2.8967,2.9039,2.9076,2.9016,2.9015,2.9028,2.9113,2.914,2.9149,2.9262,2.9178,2.9184,2.9188,2.9191,2.9449,2.9451,0,0,0,0,0,0,2.8809,2.8828,2.8987,2.8994,2.8884,2.8961,2.8974,2.9013,2.9075,2.9082,2.903,2.9027,2.913,2.9141,2.9153,2.9264,2.9185,2.9192,2.9196,2.9446,2.9449,2.9452,0,0,0,0,0,0,2.8804,2.8823,2.8983,2.8911,2.8931,2.8968,2.9012,2.9016,2.9044,2.9086,2.9092,2.9052,2.9129,2.9144,2.9226,2.9268,2.9195,2.9201,2.9442,2.9447,2.9451,2.9488,0,0,0,0,0,0,2.8798,2.8821,2.8858,2.8912,2.8935,2.9055,2.9014,2.902,2.9056,2.9053,2.9108,2.9114,2.9128,2.9216,2.9232,2.9275,2.9206,2.9439,2.9444,2.9449,2.9483,2.9493,2.9501,0,0,0,0,0,2.879,2.8864,2.886,2.8879,2.8981,2.9058,2.9071,2.9086,2.9059,2.9096,2.9122,2.9113,2.926,2.9224,2.9243,2.9289,2.9436,2.9443,2.9449,2.9479,2.9491,2.9501,0,0,0,0,0,0,2.8815,2.8872,2.8867,2.8961,2.9005,2.9056,2.9102,2.9098,2.9149,2.9144,2.916,2.9172,2.9255,2.928,2.9239,2.938,2.9345,2.9355,2.9361,2.9373,2.9381,2.9373,2.9212,0,0,0,0,0,2.8831,2.8889,2.8935,2.9014,2.9036,2.9065,2.9099,2.9106,2.9152,2.917,2.9202,2.9246,2.9302,2.9339,2.9393,2.9486,2.9497,2.9527,2.9536,2.9543,2.9552,2.9601,2.9614,2.9473,2.9473,2.9473,0,0,2.8865,2.8904,2.894,2.902,2.9054,2.9113,2.9081,2.9145,2.9188,2.9179,2.9259,2.9284,2.9333,2.9421,2.9462,2.9445,2.9593,2.9551,2.9557,2.9561,2.9609,2.9622,2.9634,2.9478,2.9477,2.9476,0,0,2.8958,2.8993,2.9062,2.9097,2.9149,2.9168,2.9184,2.9235,2.9252,2.9332,2.9326,2.9377,2.9474,2.9508,2.9539,2.9642,2.9635,2.9659,2.9706,2.9754,2.9765,2.9775,2.981,2.9823,2.9668,2.9668,2.9668,0,2.8994,2.9083,2.9097,2.9162,2.9196,2.9191,2.9259,2.9292,2.9359,2.9383,2.9363,2.9483,2.9516,2.9611,2.9636,2.9661,2.9679,2.9653,2.9763,2.9773,2.9782,2.9816,2.9829,2.967,2.967,2.967,2.967,0,2.9124,2.9185,2.9234,2.9299,2.9339,2.9405,2.9428,2.9466,2.947,2.949,2.957,2.9609,2.967,2.9693,2.9697,2.9788,2.9776,2.9759,2.9724,2.9798,2.983,2.9843,2.9674,2.9673,2.9672,2.9672,0,0,2.9236,2.9307,2.9324,2.9353,2.9409,2.9457,2.9521,2.9581,2.9613,2.9659,2.9713,2.9794,2.9778,2.9812,2.982,2.9862,2.9939,2.984,2.9842,2.9856,3.0039,3.0051,3.0066,2.9934,2.9937,2.9939,3.0035,0,2.9333,2.9448,2.9462,2.9564,2.962,2.9615,2.9671,2.9711,2.9731,2.978,2.9802,2.9859,2.9835,2.9855,2.9897,2.9921,2.9976,2.9914,2.9983,2.9985,2.997,3.0083,3.0096,3.0184,3.0048,3.005,3.0051,0,2.9462,2.9511,2.9619,2.9666,2.969,2.974,2.9795,2.9843,2.9887,2.9899,2.9936,2.9938,3.0003,2.9964,3.0053,3.0011,3.0039,3.0055,3.0059,3.0066,3.0022,3.0091,3.0213,3.0226,3.0071,3.007,3.0068,0,2.9531,2.9625,2.9701,2.9725,2.9783,2.9818,2.9843,2.9885,2.9919,2.9966,2.9988,3.0043,3.0072,3.0113,3.0129,3.01,3.0216,3.018,3.0226,3.0226,3.0251,3.0249,3.0378,3.0271,3.027,3.027,3.027,0,2.9638,2.9704,2.9732,2.9779,2.9852,2.9866,2.9937,2.996,2.9997,3.0047,3.0046,3.0093,3.0111,3.016,3.0172,3.0242,3.0256,3.0266,3.0268,3.0266,3.0264,3.0285,3.0278,3.0274,3.0273,3.0272,3.0272,0,2.9728,2.975,2.9832,2.9879,2.9892,2.9943,2.9983,3.0027,3.0046,3.0109,3.0124,3.0154,3.0211,3.023,3.03,3.0308,3.039,3.0388,3.0375,3.0375,3.042,3.0415,3.0566,3.0586,3.0466,3.0468,3.0469,0,2.9794,2.9844,2.9896,2.993,2.9956,3.001,3.0045,3.006,3.0096,3.0149,3.0187,3.0244,3.029,3.0382,3.0409,3.0461,3.046,3.0509,3.0467,3.0463,3.0459,3.0455,3.0459,3.0516,3.0517,3.0518,3.0519,0,2.9909,2.9917,2.9967,3.0021,3.0063,3.0106,3.0148,3.0175,3.0196,3.0236,3.0295,3.0331,3.0401,3.0457,3.0511,3.0535,3.053,3.0532,3.0545,3.0543,3.0533,3.0538,3.0395,3.0528,3.0528,3.0527,3.0526,3.0526,2.9988,3.0032,3.0075,3.013,3.0163,3.0202,3.0245,3.0269,3.0318,3.0377,3.0383,3.0446,3.0486,3.0558,3.0585,3.0633,3.0619,3.0639,3.0644,3.0648,3.0651,3.0526,3.0643,3.0643,3.0642,3.0642,3.0642,0,3.0102,3.0129,3.018,3.0238,3.0281,3.0273,3.0318,3.0354,3.041,3.0449,3.0494,3.0561,3.0614,3.0645,3.0698,3.0731,3.073,3.0744,3.0742,3.0747,3.0661,3.0643,3.0744,3.0744,3.0744,3.0744,3.0744,3.0744,3.0166,3.0239,3.0251,3.034,3.0366,3.0428,3.0454,3.0489,3.0519,3.0594,3.0639,3.0658,3.0693,3.0749,3.0797,3.0804,3.0823,3.0839,3.0845,3.0764,3.0753,3.0743,3.0727,3.0844,3.0844,3.0927,3.0928,3.0928]}]]